| time (UTC) | temp F | wind direction | speed MPH | gust MPH | rain 1hr in | rain 24hr in | rain mn in | humidity % | barometer mb |
| 20260508134557 | 47 | 218 | 4.0 | 7.0 | 0.00 | 0.00 | 0.00 | 75 | 1011.9 |
| 20260508133104 | 45 | 183 | 2.0 | 4.0 | 0.00 | 0.00 | 0.00 | 77 | 1011.8 |
| 20260508131553 | 43 | 17 | 2.0 | 3.0 | 0.00 | 0.00 | 0.00 | 77 | 1011.8 |
| 20260508130054 | 42 | 17 | 1.0 | 4.0 | 0.00 | 0.00 | 0.00 | 74 | 1011.7 |
| 20260508124557 | 41 | 17 | 1.0 | 2.0 | 0.00 | 0.00 | 0.00 | 69 | 1011.8 |
| 20260508123057 | 40 | 0 | 0.0 | 2.0 | 0.00 | 0.00 | 0.00 | 72 | 1011.7 |
| 20260508121559 | 40 | 17 | 0.0 | 1.0 | 0.00 | 0.00 | 0.00 | 70 | 1011.7 |
| 20260508114556 | 40 | 17 | 1.0 | 2.0 | 0.00 | 0.00 | 0.00 | 66 | 1011.9 |
| 20260508113114 | 42 | 17 | 1.0 | 3.0 | 0.00 | 0.00 | 0.00 | 64 | 1011.8 |
| 20260508111606 | 44 | 17 | 2.0 | 3.0 | 0.00 | 0.00 | 0.00 | 65 | 1011.8 |
| 20260508110103 | 45 | 17 | 2.0 | 5.0 | 0.00 | 0.00 | 0.00 | 64 | 1011.8 |
| 20260508104557 | 45 | 17 | 2.0 | 5.0 | 0.00 | 0.00 | 0.00 | 63 | 1011.9 |
| 20260508103058 | 45 | 17 | 3.0 | 5.0 | 0.00 | 0.00 | 0.00 | 64 | 1012.0 |
| 20260508101609 | 45 | 17 | 2.0 | 5.0 | 0.00 | 0.00 | 0.00 | 63 | 1012.0 |
| 20260508100058 | 44 | 30 | 4.0 | 6.0 | 0.00 | 0.00 | 0.00 | 62 | 1012.2 |
| 20260508094603 | 44 | 26 | 4.0 | 8.0 | 0.00 | 0.00 | 0.00 | 62 | 1012.0 |
| 20260508093055 | 46 | 11 | 4.0 | 8.0 | 0.00 | 0.00 | 0.00 | 64 | 1012.0 |
| 20260508091551 | 47 | 313 | 2.0 | 6.0 | 0.00 | 0.00 | 0.00 | 60 | 1012.1 |
| 20260508090055 | 48 | 332 | 7.0 | 12.0 | 0.00 | 0.00 | 0.00 | 61 | 1012.0 |
| 20260508084553 | 47 | 338 | 0.0 | 4.0 | 0.00 | 0.00 | 0.00 | 58 | 1012.1 |
| 20260508083100 | 47 | 338 | 1.0 | 3.0 | 0.00 | 0.00 | 0.00 | 58 | 1012.0 |
| 20260508081608 | 48 | 0 | 1.0 | 6.0 | 0.00 | 0.00 | 0.00 | 58 | 1011.9 |
| 20260508080054 | 50 | 0 | 1.0 | 9.0 | 0.00 | 0.00 | 0.00 | 57 | 1011.9 |
| 20260508074554 | 50 | 360 | 2.0 | 6.0 | 0.00 | 0.00 | 0.00 | 57 | 1012.0 |
| 20260508073057 | 50 | 336 | 4.0 | 10.0 | 0.00 | 0.00 | 0.00 | 58 | 1011.9 |
| 20260508071558 | 52 | 314 | 6.0 | 12.0 | 0.00 | 0.00 | 0.00 | 56 | 1012.0 |
| 20260508070106 | 50 | 298 | 3.0 | 9.0 | 0.00 | 0.00 | 0.00 | 58 | 1011.8 |
| 20260508064554 | 48 | 332 | 4.0 | 10.0 | 0.00 | 0.00 | 0.00 | 60 | 1012.0 |
| 20260508063102 | 49 | 347 | 4.0 | 7.0 | 0.00 | 0.00 | 0.00 | 59 | 1011.8 |
| 20260508061557 | 50 | 257 | 1.0 | 3.0 | 0.00 | 0.00 | 0.00 | 61 | 1011.8 |
| 20260508060106 | 51 | 0 | 1.0 | 3.0 | 0.00 | 0.00 | 0.00 | 60 | 1011.7 |
| 20260508054600 | 52 | 257 | 0.0 | 2.0 | 0.00 | 0.00 | 0.00 | 60 | 1011.7 |
| 20260508053058 | 52 | 0 | 0.0 | 1.0 | 0.00 | 0.00 | 0.00 | 60 | 1011.8 |
| 20260508051559 | 53 | 257 | 2.0 | 4.0 | 0.00 | 0.00 | 0.00 | 59 | 1011.8 |
| 20260508050057 | 54 | 257 | 0.0 | 6.0 | 0.00 | 0.00 | 0.00 | 57 | 1011.7 |
| 20260508044606 | 55 | 0 | 3.0 | 6.0 | 0.00 | 0.00 | 0.00 | 56 | 1011.6 |
| 20260508043111 | 56 | 283 | 6.0 | 10.0 | 0.00 | 0.00 | 0.00 | 55 | 1011.4 |
| 20260508041556 | 57 | 279 | 7.0 | 11.0 | 0.00 | 0.00 | 0.00 | 54 | 1011.5 |
| 20260508040103 | 57 | 255 | 6.0 | 11.0 | 0.00 | 0.00 | 0.00 | 53 | 1011.5 |
| 20260508034557 | 58 | 266 | 8.0 | 14.0 | 0.00 | 0.00 | 0.00 | 50 | 1011.4 |
| 20260508033052 | 59 | 250 | 7.0 | 14.0 | 0.00 | 0.00 | 0.00 | 48 | 1011.7 |
| 20260508031600 | 60 | 269 | 10.0 | 19.0 | 0.00 | 0.00 | 0.00 | 46 | 1011.6 |
| 20260508024558 | 60 | 229 | 2.0 | 5.0 | 0.00 | 0.00 | 0.00 | 45 | 1011.2 |
| 20260508023055 | 62 | 229 | 3.0 | 7.0 | 0.00 | 0.00 | 0.00 | 42 | 1011.0 |
| 20260508021553 | 62 | 226 | 4.0 | 7.0 | 0.00 | 0.00 | 0.00 | 42 | 1010.5 |
| 20260508020051 | 63 | 263 | 3.0 | 8.0 | 0.00 | 0.00 | 0.00 | 42 | 1010.3 |
| 20260508014552 | 64 | 250 | 4.0 | 11.0 | 0.00 | 0.00 | 0.00 | 41 | 1010.4 |
| 20260508013057 | 65 | 233 | 8.0 | 14.0 | 0.00 | 0.00 | 0.00 | 39 | 1010.1 |
| 20260508011605 | 65 | 266 | 9.0 | 14.0 | 0.00 | 0.00 | 0.00 | 40 | 1010.1 |
| 20260508010054 | 65 | 237 | 5.0 | 10.0 | 0.00 | 0.00 | 0.00 | 40 | 1010.1 |
| 20260508004556 | 64 | 235 | 8.0 | 14.0 | 0.00 | 0.00 | 0.00 | 40 | 1010.2 |
| 20260508003056 | 64 | 269 | 10.0 | 20.0 | 0.00 | 0.00 | 0.00 | 38 | 1010.3 |
| 20260508001554 | 65 | 259 | 7.0 | 16.0 | 0.00 | 0.00 | 0.00 | 42 | 1010.3 |
| 20260508000050 | 66 | 281 | 13.0 | 19.0 | 0.00 | 0.00 | 0.00 | 38 | 1010.4 |
| 20260507234600 | 68 | 254 | 10.0 | 14.0 | 0.00 | 0.00 | 0.00 | 29 | 1009.7 |
| 20260507233056 | 68 | 305 | 12.0 | 19.0 | 0.00 | 0.00 | 0.00 | 28 | 1009.9 |
| 20260507231557 | 68 | 146 | 6.0 | 17.0 | 0.00 | 0.00 | 0.00 | 29 | 1009.8 |
| 20260507230056 | 67 | 315 | 7.0 | 12.0 | 0.00 | 0.00 | 0.00 | 30 | 1010.0 |
| 20260507224555 | 66 | 299 | 13.0 | 21.0 | 0.00 | 0.00 | 0.00 | 35 | 1010.2 |
| 20260507223101 | 67 | 298 | 10.0 | 18.0 | 0.00 | 0.00 | 0.00 | 29 | 1010.1 |
| 20260507221554 | 68 | 309 | 9.0 | 22.0 | 0.00 | 0.00 | 0.00 | 29 | 1010.2 |
| 20260507220056 | 68 | 243 | 8.0 | 18.0 | 0.00 | 0.00 | 0.00 | 29 | 1010.1 |
| 20260507214558 | 68 | 258 | 11.0 | 18.0 | 0.00 | 0.00 | 0.00 | 29 | 1010.2 |
| 20260507213056 | 67 | 277 | 12.0 | 22.0 | 0.00 | 0.00 | 0.00 | 30 | 1010.3 |
| 20260507211552 | 67 | 285 | 9.0 | 19.0 | 0.00 | 0.00 | 0.00 | 31 | 1010.5 |
| 20260507210053 | 67 | 299 | 9.0 | 17.0 | 0.00 | 0.00 | 0.00 | 31 | 1010.6 |
| 20260507204552 | 66 | 19 | 10.0 | 18.0 | 0.00 | 0.00 | 0.00 | 33 | 1010.7 |
| 20260507203100 | 65 | 360 | 5.0 | 13.0 | 0.00 | 0.00 | 0.00 | 36 | 1010.8 |
| 20260507201551 | 64 | 335 | 14.0 | 22.0 | 0.00 | 0.00 | 0.00 | 40 | 1010.7 |
| 20260507200056 | 66 | 294 | 7.0 | 15.0 | 0.00 | 0.00 | 0.00 | 32 | 1010.7 |
| 20260507194551 | 66 | 211 | 11.0 | 20.0 | 0.00 | 0.00 | 0.00 | 32 | 1010.6 |
| 20260507193100 | 65 | 273 | 9.0 | 17.0 | 0.00 | 0.00 | 0.00 | 34 | 1010.6 |
| 20260507191553 | 65 | 10 | 8.0 | 16.0 | 0.00 | 0.00 | 0.00 | 35 | 1010.6 |
| 20260507190057 | 65 | 316 | 10.0 | 20.0 | 0.00 | 0.00 | 0.00 | 35 | 1010.7 |
| 20260507184554 | 66 | 313 | 10.0 | 18.0 | 0.00 | 0.00 | 0.00 | 33 | 1010.6 |
| 20260507183058 | 66 | 258 | 11.0 | 17.0 | 0.00 | 0.00 | 0.00 | 32 | 1010.7 |
| 20260507181557 | 66 | 360 | 7.0 | 18.0 | 0.00 | 0.00 | 0.00 | 34 | 1010.7 |
| 20260507180055 | 65 | 312 | 10.0 | 25.0 | 0.00 | 0.00 | 0.00 | 35 | 1010.9 |
| 20260507174605 | 66 | 327 | 11.0 | 20.0 | 0.00 | 0.00 | 0.00 | 35 | 1011.0 |
| 20260507173101 | 65 | 331 | 11.0 | 22.0 | 0.00 | 0.00 | 0.00 | 36 | 1011.2 |
| 20260507171609 | 64 | 297 | 12.0 | 23.0 | 0.00 | 0.00 | 0.00 | 38 | 1011.1 |
| 20260507170057 | 64 | 327 | 11.0 | 23.0 | 0.00 | 0.00 | 0.00 | 38 | 1011.3 |
| 20260507164605 | 65 | 329 | 11.0 | 21.0 | 0.00 | 0.00 | 0.00 | 37 | 1011.1 |
| 20260507163054 | 63 | 302 | 9.0 | 20.0 | 0.00 | 0.00 | 0.00 | 38 | 1011.0 |
| 20260507161605 | 62 | 13 | 9.0 | 18.0 | 0.00 | 0.00 | 0.00 | 39 | 1011.3 |
| 20260507154558 | 62 | 184 | 2.0 | 5.0 | 0.00 | 0.00 | 0.00 | 40 | 1011.1 |
| 20260507153055 | 59 | 155 | 1.0 | 3.0 | 0.00 | 0.00 | 0.00 | 44 | 1011.4 |
| 20260507151607 | 55 | 142 | 2.0 | 5.0 | 0.00 | 0.00 | 0.00 | 49 | 1011.5 |
| 20260507150105 | 52 | 348 | 2.0 | 4.0 | 0.00 | 0.00 | 0.00 | 52 | 1011.6 |
| 20260507144557 | 51 | 348 | 1.0 | 5.0 | 0.00 | 0.00 | 0.00 | 52 | 1011.5 |
| 20260507143103 | 50 | 0 | 0.0 | 3.0 | 0.00 | 0.00 | 0.00 | 54 | 1011.7 |
| 20260507141558 | 48 | 0 | 0.0 | 3.0 | 0.00 | 0.00 | 0.00 | 55 | 1011.7 |
| 20260507140054 | 48 | 348 | 1.0 | 4.0 | 0.00 | 0.00 | 0.00 | 55 | 1011.4 |